Location: Rounton
(54.4000°N, 1.3500°W)
Time: 23:24:06
(UTC+01:00)

Vanguard 1 - Pass Details

Date: 27 February 2024
Orbit: 653 x 3825 km, 34.2° (Epoch: 21 April)

Event Time Altitude Azimuth Distance (km) Brightness Sun altitude
Rises 00:21:26 0° 268° (W) 6,841 14.4 -44.2°
Reaches altitude 10° 00:26:22 10° 259° (W) 6,190 14.0 -44.2°
Enters shadow 00:31:24 20° 248° (WSW) 5,680 13.6 -44.1°
Maximum altitude 00:42:59 31° 208° (SSW) 5,273 - -43.9°
Drops below altitude 10° 01:01:00 10° 156° (SSE) 6,653 - -43.4°
Sets 01:06:39 0° 147° (SSE) 7,394 - -43.2°
